Volver al catálogo

COSMOS 2499 DEB

ActivoPO
NORAD 55732·DEBRIS·🇷🇺 Russia

Lanzado May 23, 2014 desde Plesetsk Cosmodrome

Loading…

Próximos Pases (próximas 24 horas)

TLE

EnvejeciendoSource: Space-Track

Época: Sep 9, 2026, 12:05 UTC

1 55732U 14028AU  26252.50369235  .00005021  00000-0  18513-1 0  9994
2 55732  82.3193 182.1920 0118536 146.5466 214.3201 12.90283107107003

Sigue COSMOS 2499 DEB en tiempo real con AllMySat

Download on the App Store